Time,TemperatureF,DewpointF,PressureIn,WindDirection,WindDirectionDegrees,WindSpeedMPH,WindSpeedGustMPH,Humidity,HourlyPrecipIn,Conditions,Clouds,dailyrainin,SoftwareType,DateUTC
2013-09-22 00:01:00,68.7,64.7,29.72,East,90,0.7,0.7,87,0.00,,,0.00,WUHU21623XXSP,2013-09-22 04:01:00,
2013-09-22 00:06:00,68.7,64.7,29.71,ESE,112,1.3,1.3,87,0.00,,,0.00,WUHU21623XXSP,2013-09-22 04:06:00,
2013-09-22 00:11:00,68.7,64.7,29.71,ESE,112,0.0,1.3,87,0.00,,,0.00,WUHU21623XXSP,2013-09-22 04:11:00,
2013-09-22 00:16:00,68.7,64.7,29.71,South,180,2.5,4.0,87,0.00,,,0.00,WUHU21623XXSP,2013-09-22 04:16:00,
2013-09-22 00:21:00,68.7,64.7,29.71,ESE,112,0.0,4.0,87,0.00,,,0.00,WUHU21623XXSP,2013-09-22 04:21:00,
2013-09-22 00:26:00,68.7,64.7,29.71,SE,135,0.0,0.0,87,0.00,,,0.00,WUHU21623XXSP,2013-09-22 04:26:00,
2013-09-22 00:31:00,68.7,64.7,29.70,SSE,157,0.0,0.7,87,0.00,,,0.00,WUHU21623XXSP,2013-09-22 04:31:00,
2013-09-22 00:36:00,68.7,64.3,29.71,ESE,112,0.0,1.8,86,0.00,,,0.00,WUHU21623XXSP,2013-09-22 04:36:00,
2013-09-22 00:41:00,68.7,64.3,29.71,South,180,0.0,1.8,86,0.00,,,0.00,WUHU21623XXSP,2013-09-22 04:41:00,
2013-09-22 00:46:00,68.9,64.5,29.70,SSE,157,0.7,0.7,86,0.00,,,0.00,WUHU21623XXSP,2013-09-22 04:46:00,
2013-09-22 00:51:00,68.9,64.5,29.71,SSE,157,0.0,4.5,86,0.00,,,0.00,WUHU21623XXSP,2013-09-22 04:51:00,
2013-09-22 00:56:00,68.9,64.5,29.70,SSE,157,0.0,4.5,86,0.00,,,0.00,WUHU21623XXSP,2013-09-22 04:56:00,
2013-09-22 01:01:00,69.1,64.7,29.70,ENE,67,2.9,3.4,86,0.00,,,0.00,WUHU21623XXSP,2013-09-22 05:01:00,
2013-09-22 01:06:00,69.1,64.7,29.69,SSE,157,0.0,2.9,86,0.00,,,0.00,WUHU21623XXSP,2013-09-22 05:06:00,
2013-09-22 01:11:00,69.1,64.7,29.69,SSE,157,0.0,0.0,86,0.00,,,0.00,WUHU21623XXSP,2013-09-22 05:11:00,
2013-09-22 01:16:00,69.1,64.7,29.69,East,90,1.8,1.8,86,0.00,,,0.00,WUHU21623XXSP,2013-09-22 05:16:00,
2013-09-22 01:21:00,69.1,64.7,29.69,SSE,157,0.0,1.8,86,0.00,,,0.00,WUHU21623XXSP,2013-09-22 05:21:00,
2013-09-22 01:27:00,69.1,64.7,29.69,SSE,157,0.0,0.0,86,0.00,,,0.00,WUHU21623XXSP,2013-09-22 05:27:00,
2013-09-22 01:32:00,69.1,64.7,29.68,SSE,157,4.0,4.0,86,0.00,,,0.00,WUHU21623XXSP,2013-09-22 05:32:00,
2013-09-22 01:37:00,69.1,64.7,29.68,South,180,1.8,4.0,86,0.00,,,0.00,WUHU21623XXSP,2013-09-22 05:37:00,
2013-09-22 01:42:00,69.1,64.7,29.68,South,180,0.0,1.8,86,0.00,,,0.00,WUHU21623XXSP,2013-09-22 05:42:00,
2013-09-22 01:47:00,69.1,64.7,29.68,SSE,157,6.0,6.0,86,0.00,,,0.00,WUHU21623XXSP,2013-09-22 05:47:00,
2013-09-22 01:52:00,69.1,64.7,29.67,SSE,157,0.0,6.0,86,0.00,,,0.00,WUHU21623XXSP,2013-09-22 05:52:00,
2013-09-22 01:57:00,69.1,64.7,29.67,NNE,22,0.0,0.0,86,0.00,,,0.00,WUHU21623XXSP,2013-09-22 05:57:00,
2013-09-22 02:02:00,69.1,64.7,29.67,ESE,112,0.7,0.7,86,0.00,,,0.00,WUHU21623XXSP,2013-09-22 06:02:00,
2013-09-22 02:07:00,69.1,64.7,29.66,NNE,22,0.0,0.7,86,0.00,,,0.00,WUHU21623XXSP,2013-09-22 06:07:00,
2013-09-22 02:12:00,69.1,64.7,29.66,WNW,292,0.0,1.8,86,0.00,,,0.00,WUHU21623XXSP,2013-09-22 06:12:00,
2013-09-22 02:17:00,69.1,64.7,29.66,SSE,157,2.2,2.2,86,0.00,,,0.00,WUHU21623XXSP,2013-09-22 06:17:00,
2013-09-22 02:22:00,69.1,64.7,29.66,ESE,112,0.0,2.2,86,0.00,,,0.00,WUHU21623XXSP,2013-09-22 06:22:00,
2013-09-22 02:27:00,69.1,64.7,29.65,South,180,2.9,2.9,86,0.00,,,0.00,WUHU21623XXSP,2013-09-22 06:27:00,
2013-09-22 02:32:00,69.3,64.8,29.65,SSE,157,0.0,2.9,86,0.00,,,0.00,WUHU21623XXSP,2013-09-22 06:32:00,
2013-09-22 02:37:00,69.3,64.8,29.65,South,180,0.0,2.9,86,0.00,,,0.00,WUHU21623XXSP,2013-09-22 06:37:00,
2013-09-22 02:42:00,69.4,65.0,29.65,NE,45,0.0,1.3,86,0.00,,,0.00,WUHU21623XXSP,2013-09-22 06:42:00,
2013-09-22 02:47:00,69.4,65.0,29.65,South,180,0.0,1.3,86,0.00,,,0.00,WUHU21623XXSP,2013-09-22 06:47:00,
2013-09-22 02:52:00,69.4,64.7,29.64,South,180,0.0,1.3,85,0.00,,,0.00,WUHU21623XXSP,2013-09-22 06:52:00,
2013-09-22 02:57:00,69.6,64.8,29.64,SE,135,3.8,3.8,85,0.00,,,0.00,WUHU21623XXSP,2013-09-22 06:57:00,
2013-09-22 03:02:00,69.6,64.8,29.63,East,90,2.2,3.8,85,0.00,,,0.00,WUHU21623XXSP,2013-09-22 07:02:00,
2013-09-22 03:07:00,69.6,64.8,29.63,SE,135,0.0,2.2,85,0.00,,,0.00,WUHU21623XXSP,2013-09-22 07:07:00,
2013-09-22 03:12:00,69.6,64.8,29.63,SSE,157,4.0,4.0,85,0.00,,,0.00,WUHU21623XXSP,2013-09-22 07:12:00,
2013-09-22 03:17:00,69.8,65.0,29.63,ENE,67,0.0,4.0,85,0.00,,,0.00,WUHU21623XXSP,2013-09-22 07:17:00,
2013-09-22 03:22:00,69.8,65.0,29.63,SW,225,2.7,2.7,85,0.00,,,0.00,WUHU21623XXSP,2013-09-22 07:22:00,
2013-09-22 03:27:00,70.0,65.2,29.63,SE,135,5.1,5.1,85,0.00,,,0.00,WUHU21623XXSP,2013-09-22 07:27:00,
2013-09-22 03:32:00,70.0,65.2,29.63,SSE,157,0.0,5.1,85,0.00,,,0.00,WUHU21623XXSP,2013-09-22 07:32:00,
2013-09-22 03:37:00,70.0,65.2,29.63,NNE,22,2.0,2.0,85,0.00,,,0.00,WUHU21623XXSP,2013-09-22 07:37:00,
2013-09-22 03:42:00,70.0,65.2,29.62,North,0,0.0,2.0,85,0.00,,,0.00,WUHU21623XXSP,2013-09-22 07:42:00,
2013-09-22 03:47:00,70.0,65.2,29.62,SE,135,0.0,1.3,85,0.00,,,0.00,WUHU21623XXSP,2013-09-22 07:47:00,
2013-09-22 03:52:00,70.0,65.2,29.62,SSE,157,0.0,2.9,85,0.00,,,0.00,WUHU21623XXSP,2013-09-22 07:52:00,
2013-09-22 03:57:00,70.0,65.2,29.62,ESE,112,2.2,2.9,85,0.00,,,0.00,WUHU21623XXSP,2013-09-22 07:57:00,
2013-09-22 04:02:00,70.0,65.2,29.62,SSE,157,0.0,2.2,85,0.00,,,0.00,WUHU21623XXSP,2013-09-22 08:02:00,
2013-09-22 04:07:00,70.0,65.2,29.62,SSE,157,0.0,0.0,85,0.00,,,0.00,WUHU21623XXSP,2013-09-22 08:07:00,
2013-09-22 04:12:00,70.0,65.2,29.62,SSW,202,3.8,3.8,85,0.00,,,0.00,WUHU21623XXSP,2013-09-22 08:12:00,
2013-09-22 04:17:00,69.8,65.0,29.62,ENE,67,0.0,4.9,85,0.00,,,0.00,WUHU21623XXSP,2013-09-22 08:17:00,
2013-09-22 04:22:00,69.8,65.0,29.61,SSE,157,3.8,4.9,85,0.00,,,0.00,WUHU21623XXSP,2013-09-22 08:22:00,
2013-09-22 04:27:00,70.0,65.2,29.61,SE,135,0.0,3.8,85,0.00,,,0.00,WUHU21623XXSP,2013-09-22 08:27:00,
2013-09-22 04:32:00,70.0,65.2,29.61,SE,135,0.0,2.9,85,0.00,,,0.00,WUHU21623XXSP,2013-09-22 08:32:00,
2013-09-22 04:37:00,70.0,65.2,29.61,SE,135,0.0,0.0,85,0.00,,,0.00,WUHU21623XXSP,2013-09-22 08:37:00,
2013-09-22 04:42:00,70.0,65.2,29.61,South,180,2.5,2.5,85,0.00,,,0.00,WUHU21623XXSP,2013-09-22 08:42:00,
2013-09-22 04:47:00,69.8,65.0,29.61,SSE,157,3.4,3.4,85,0.00,,,0.00,WUHU21623XXSP,2013-09-22 08:47:00,
2013-09-22 04:52:00,69.8,64.7,29.61,SE,135,3.4,3.4,84,0.00,,,0.00,WUHU21623XXSP,2013-09-22 08:52:00,
2013-09-22 04:57:00,69.8,64.7,29.61,SSE,157,0.0,3.4,84,0.00,,,0.00,WUHU21623XXSP,2013-09-22 08:57:00,
2013-09-22 05:02:00,70.0,64.7,29.62,SSE,157,2.0,2.0,84,0.00,,,0.00,WUHU21623XXSP,2013-09-22 09:02:00,
2013-09-22 05:07:00,70.0,64.9,29.62,SSE,157,3.6,3.6,84,0.00,,,0.00,WUHU21623XXSP,2013-09-22 09:07:00,
2013-09-22 05:12:00,70.0,64.9,29.61,ENE,67,0.0,4.0,84,0.00,,,0.00,WUHU21623XXSP,2013-09-22 09:12:00,
2013-09-22 05:17:00,70.0,64.9,29.61,WSW,247,1.3,4.0,84,0.00,,,0.00,WUHU21623XXSP,2013-09-22 09:17:00,
2013-09-22 05:22:00,70.0,64.9,29.61,South,180,2.5,2.5,84,0.00,,,0.00,WUHU21623XXSP,2013-09-22 09:22:00,
2013-09-22 05:27:00,70.0,64.9,29.61,SSE,157,0.0,2.5,84,0.00,,,0.00,WUHU21623XXSP,2013-09-22 09:27:00,
2013-09-22 05:32:00,69.6,64.8,29.61,WSW,247,0.0,0.0,85,0.00,,,0.00,WUHU21623XXSP,2013-09-22 09:32:00,
2013-09-22 05:37:00,69.6,65.2,29.61,SSE,157,0.0,5.4,86,0.00,,,0.00,WUHU21623XXSP,2013-09-22 09:37:00,
2013-09-22 05:42:00,69.4,65.0,29.61,East,90,0.0,5.4,86,0.00,,,0.00,WUHU21623XXSP,2013-09-22 09:42:00,
2013-09-22 05:47:00,69.3,64.8,29.61,SE,135,0.0,0.0,86,0.00,,,0.00,WUHU21623XXSP,2013-09-22 09:47:00,
2013-09-22 05:52:00,69.1,65.0,29.61,ESE,112,0.0,2.2,87,0.00,,,0.00,WUHU21623XXSP,2013-09-22 09:52:00,
2013-09-22 05:57:00,69.1,65.0,29.61,SE,135,0.0,2.2,87,0.00,,,0.00,WUHU21623XXSP,2013-09-22 09:57:00,
2013-09-22 06:02:00,69.1,65.0,29.61,ESE,112,0.0,2.5,87,0.00,,,0.00,WUHU21623XXSP,2013-09-22 10:02:00,
2013-09-22 06:07:00,69.1,65.0,29.61,East,90,0.0,10.5,87,0.00,,,0.00,WUHU21623XXSP,2013-09-22 10:07:00,
2013-09-22 06:12:00,69.1,65.3,29.61,ESE,112,0.0,10.5,88,0.00,,,0.00,WUHU21623XXSP,2013-09-22 10:12:00,
2013-09-22 06:17:00,69.1,65.3,29.61,SE,135,2.2,8.1,88,0.00,,,0.00,WUHU21623XXSP,2013-09-22 10:17:00,
2013-09-22 06:22:00,69.1,65.3,29.61,ESE,112,1.8,2.2,88,0.00,,,0.00,WUHU21623XXSP,2013-09-22 10:22:00,
2013-09-22 06:27:00,69.1,65.3,29.60,NW,315,0.0,1.8,88,0.00,,,0.00,WUHU21623XXSP,2013-09-22 10:27:00,
2013-09-22 06:32:00,69.1,65.3,29.60,SE,135,0.0,3.1,88,0.00,,,0.00,WUHU21623XXSP,2013-09-22 10:32:00,
2013-09-22 06:37:00,69.1,65.3,29.60,WSW,247,2.7,3.1,88,0.00,,,0.00,WUHU21623XXSP,2013-09-22 10:37:00,
2013-09-22 06:42:00,69.3,65.5,29.60,SSE,157,0.0,2.7,88,0.00,,,0.00,WUHU21623XXSP,2013-09-22 10:42:00,
2013-09-22 06:47:00,69.3,65.5,29.60,SE,135,0.0,1.6,88,0.00,,,0.00,WUHU21623XXSP,2013-09-22 10:47:00,
2013-09-22 06:52:00,69.4,65.7,29.61,SE,135,4.0,4.0,88,0.00,,,0.00,WUHU21623XXSP,2013-09-22 10:52:00,
2013-09-22 06:58:00,69.4,65.7,29.61,ENE,67,0.0,4.0,88,0.00,,,0.00,WUHU21623XXSP,2013-09-22 10:58:00,
2013-09-22 07:03:00,69.3,65.5,29.63,NW,315,4.5,7.8,88,0.00,,,0.00,WUHU21623XXSP,2013-09-22 11:03:00,
2013-09-22 07:08:00,68.5,64.5,29.63,South,180,0.0,4.5,87,0.00,,,0.00,WUHU21623XXSP,2013-09-22 11:08:00,
2013-09-22 07:13:00,67.8,63.8,29.63,South,180,0.0,4.7,87,0.00,,,0.00,WUHU21623XXSP,2013-09-22 11:13:00,
2013-09-22 07:18:00,67.6,63.6,29.63,South,180,0.0,5.1,87,0.00,,,0.00,WUHU21623XXSP,2013-09-22 11:18:00,
2013-09-22 07:24:00,67.1,63.4,29.63,SE,135,0.0,5.1,88,0.00,,,0.00,WUHU21623XXSP,2013-09-22 11:24:00,
2013-09-22 07:29:00,66.9,63.2,29.63,SE,135,0.0,2.0,88,0.00,,,0.00,WUHU21623XXSP,2013-09-22 11:29:00,
2013-09-22 07:34:00,66.7,63.0,29.63,SW,225,0.0,2.2,88,0.00,,,0.00,WUHU21623XXSP,2013-09-22 11:34:00,
2013-09-22 07:39:00,66.7,63.4,29.63,ENE,67,0.0,2.2,89,0.00,,,0.00,WUHU21623XXSP,2013-09-22 11:39:00,
2013-09-22 07:44:00,66.7,63.4,29.62,WSW,247,0.0,0.0,89,0.00,,,0.00,WUHU21623XXSP,2013-09-22 11:44:00,
2013-09-22 07:49:00,66.6,63.2,29.62,WNW,292,0.0,0.0,89,0.00,,,0.00,WUHU21623XXSP,2013-09-22 11:49:00,
2013-09-22 07:54:00,66.6,63.2,29.63,East,90,0.0,0.0,89,0.00,,,0.00,WUHU21623XXSP,2013-09-22 11:54:00,
2013-09-22 07:59:00,66.6,63.2,29.63,ENE,67,1.6,1.6,89,0.00,,,0.00,WUHU21623XXSP,2013-09-22 11:59:00,
2013-09-22 08:04:00,66.6,63.2,29.63,ENE,67,0.0,1.6,89,0.00,,,0.00,WUHU21623XXSP,2013-09-22 12:04:00,
2013-09-22 08:09:00,66.4,63.3,29.63,ENE,67,0.0,0.0,90,0.00,,,0.00,WUHU21623XXSP,2013-09-22 12:09:00,
2013-09-22 08:14:00,66.4,63.3,29.63,WSW,247,0.0,0.0,90,0.00,,,0.00,WUHU21623XXSP,2013-09-22 12:14:00,
2013-09-22 08:19:00,66.4,63.3,29.63,East,90,0.0,0.0,90,0.00,,,0.00,WUHU21623XXSP,2013-09-22 12:19:00,
2013-09-22 08:24:00,66.4,63.3,29.63,SE,135,0.0,0.0,90,0.00,,,0.00,WUHU21623XXSP,2013-09-22 12:24:00,
2013-09-22 08:29:00,66.6,63.5,29.63,ENE,67,0.0,0.0,90,0.00,,,0.00,WUHU21623XXSP,2013-09-22 12:29:00,
2013-09-22 08:34:00,66.4,63.3,29.63,NNW,337,0.0,0.0,90,0.00,,,0.00,WUHU21623XXSP,2013-09-22 12:34:00,
2013-09-22 08:39:00,66.4,63.3,29.63,WNW,292,0.0,0.0,90,0.00,,,0.00,WUHU21623XXSP,2013-09-22 12:39:00,
2013-09-22 08:44:00,66.4,63.3,29.64,ENE,67,0.0,0.0,90,0.00,,,0.00,WUHU21623XXSP,2013-09-22 12:44:00,
2013-09-22 08:49:00,66.4,63.3,29.64,SSE,157,2.0,2.9,90,0.00,,,0.00,WUHU21623XXSP,2013-09-22 12:49:00,
2013-09-22 08:54:00,66.4,63.3,29.64,East,90,0.0,4.0,90,0.00,,,0.00,WUHU21623XXSP,2013-09-22 12:54:00,
2013-09-22 08:59:00,66.0,63.0,29.64,ENE,67,0.0,4.0,90,0.00,,,0.00,WUHU21623XXSP,2013-09-22 12:59:00,
2013-09-22 09:04:00,65.7,62.7,29.64,North,0,0.0,0.0,90,0.00,,,0.00,WUHU21623XXSP,2013-09-22 13:04:00,
2013-09-22 09:09:00,65.5,62.5,29.64,WSW,247,0.0,1.3,90,0.00,,,0.00,WUHU21623XXSP,2013-09-22 13:09:00,
2013-09-22 09:14:00,65.1,62.2,29.64,NNW,337,0.0,1.3,90,0.00,,,0.00,WUHU21623XXSP,2013-09-22 13:14:00,
2013-09-22 09:19:00,65.1,62.2,29.64,ESE,112,0.0,0.0,90,0.00,,,0.00,WUHU21623XXSP,2013-09-22 13:19:00,
2013-09-22 09:24:00,65.1,62.2,29.65,WNW,292,0.0,0.0,90,0.00,,,0.00,WUHU21623XXSP,2013-09-22 13:24:00,
2013-09-22 09:29:00,65.1,62.2,29.65,NNW,337,0.0,0.0,90,0.00,,,0.00,WUHU21623XXSP,2013-09-22 13:29:00,
2013-09-22 09:34:00,64.9,62.0,29.65,WSW,247,0.0,0.0,90,0.00,,,0.00,WUHU21623XXSP,2013-09-22 13:34:00,
2013-09-22 09:39:00,64.9,62.0,29.65,SSW,202,0.0,0.0,90,0.00,,,0.00,WUHU21623XXSP,2013-09-22 13:39:00,
2013-09-22 09:44:00,64.8,62.0,29.65,SSW,202,0.0,0.0,90,0.00,,,0.00,WUHU21623XXSP,2013-09-22 13:44:00,
2013-09-22 09:49:00,64.9,62.0,29.65,SSW,202,0.0,0.0,90,0.00,,,0.00,WUHU21623XXSP,2013-09-22 13:49:00,
2013-09-22 09:54:00,64.8,61.8,29.65,SSW,202,0.0,0.0,90,0.00,,,0.00,WUHU21623XXSP,2013-09-22 13:54:00,
2013-09-22 09:59:00,64.8,61.8,29.65,WSW,247,0.0,0.0,90,0.00,,,0.00,WUHU21623XXSP,2013-09-22 13:59:00,
2013-09-22 10:04:00,64.0,61.0,29.65,WSW,247,0.0,0.0,90,0.00,,,0.00,WUHU21623XXSP,2013-09-22 14:04:00,
2013-09-22 10:09:00,63.7,60.7,29.65,WSW,247,0.0,0.0,90,0.00,,,0.00,WUHU21623XXSP,2013-09-22 14:09:00,
2013-09-22 10:14:00,62.7,59.7,29.64,NW,315,0.0,0.0,90,0.00,,,0.00,WUHU21623XXSP,2013-09-22 14:14:00,
2013-09-22 10:19:00,62.0,59.0,29.64,NW,315,0.0,0.0,90,0.00,,,0.00,WUHU21623XXSP,2013-09-22 14:19:00,
2013-09-22 10:24:00,61.4,58.4,29.64,NNW,337,0.0,0.0,90,0.00,,,0.00,WUHU21623XXSP,2013-09-22 14:24:00,
2013-09-22 10:29:00,60.7,57.7,29.65,WNW,292,0.0,0.0,90,0.00,,,0.00,WUHU21623XXSP,2013-09-22 14:29:00,
2013-09-22 10:34:00,60.1,57.1,29.65,NW,315,0.0,0.0,90,0.00,,,0.00,WUHU21623XXSP,2013-09-22 14:34:00,
2013-09-22 10:39:00,59.6,56.6,29.65,SSE,157,0.0,0.0,90,0.00,,,0.00,WUHU21623XXSP,2013-09-22 14:39:00,
2013-09-22 10:44:00,58.8,55.9,29.65,West,270,0.0,0.0,90,0.00,,,0.00,WUHU21623XXSP,2013-09-22 14:44:00,
2013-09-22 10:49:00,58.3,55.4,29.65,NNW,337,0.0,0.0,90,0.00,,,0.00,WUHU21623XXSP,2013-09-22 14:49:00,
2013-09-22 10:54:00,57.9,55.0,29.65,North,0,0.0,0.0,90,0.00,,,0.00,WUHU21623XXSP,2013-09-22 14:54:00,
2013-09-22 10:59:00,58.0,55.1,29.65,NW,315,0.0,0.0,90,0.00,,,0.00,WUHU21623XXSP,2013-09-22 14:59:00,
2013-09-22 11:04:00,57.9,55.3,29.65,SW,225,0.0,0.0,91,0.00,,,0.00,WUHU21623XXSP,2013-09-22 15:04:00,
2013-09-22 11:09:00,59.3,56.6,29.65,West,270,0.0,0.0,91,0.00,,,0.00,WUHU21623XXSP,2013-09-22 15:09:00,
2013-09-22 11:14:00,59.8,57.2,29.66,NNE,22,0.0,0.0,91,0.00,,,0.00,WUHU21623XXSP,2013-09-22 15:14:00,
2013-09-22 11:19:00,59.9,56.9,29.65,NW,315,0.0,0.0,90,0.00,,,0.00,WUHU21623XXSP,2013-09-22 15:19:00,
2013-09-22 11:24:00,60.2,56.9,29.65,NW,315,0.0,0.0,89,0.00,,,0.00,WUHU21623XXSP,2013-09-22 15:24:00,
2013-09-22 11:29:00,60.6,57.0,29.65,SSW,202,1.3,1.3,88,0.00,,,0.00,WUHU21623XXSP,2013-09-22 15:29:00,
2013-09-22 11:34:00,60.6,56.7,29.65,WSW,247,0.0,1.3,87,0.00,,,0.00,WUHU21623XXSP,2013-09-22 15:34:00,
2013-09-22 11:39:00,60.7,56.5,29.65,East,90,0.0,0.0,86,0.00,,,0.00,WUHU21623XXSP,2013-09-22 15:39:00,
2013-09-22 11:44:00,61.3,56.7,29.65,East,90,0.0,0.0,85,0.00,,,0.00,WUHU21623XXSP,2013-09-22 15:44:00,
2013-09-22 11:49:00,61.1,56.2,29.65,NW,315,0.0,0.0,84,0.00,,,0.00,WUHU21623XXSP,2013-09-22 15:49:00,
2013-09-22 11:54:00,61.3,56.5,29.65,WSW,247,1.1,1.1,84,0.00,,,0.00,WUHU21623XXSP,2013-09-22 15:54:00,
2013-09-22 11:59:00,61.8,56.9,29.65,SSW,202,0.0,1.1,84,0.00,,,0.00,WUHU21623XXSP,2013-09-22 15:59:00,
2013-09-22 12:04:00,61.9,57.0,29.65,NNE,22,0.0,1.1,84,0.00,,,0.00,WUHU21623XXSP,2013-09-22 16:04:00,
2013-09-22 12:09:00,62.2,57.3,29.65,SSE,157,0.0,0.0,84,0.00,,,0.00,WUHU21623XXSP,2013-09-22 16:09:00,
2013-09-22 12:14:00,63.0,58.1,29.65,NW,315,0.0,1.3,84,0.00,,,0.00,WUHU21623XXSP,2013-09-22 16:14:00,
2013-09-22 12:19:00,63.2,57.9,29.65,SSE,157,0.0,1.3,83,0.00,,,0.00,WUHU21623XXSP,2013-09-22 16:19:00,
2013-09-22 12:24:00,63.5,58.3,29.65,West,270,0.0,1.8,83,0.00,,,0.00,WUHU21623XXSP,2013-09-22 16:24:00,
2013-09-22 12:29:00,63.8,58.6,29.65,NW,315,0.0,1.8,83,0.00,,,0.00,WUHU21623XXSP,2013-09-22 16:29:00,
2013-09-22 12:34:00,64.2,59.0,29.65,NW,315,0.0,0.0,83,0.00,,,0.00,WUHU21623XXSP,2013-09-22 16:34:00,
2013-09-22 12:39:00,64.8,59.6,29.65,West,270,0.0,0.0,83,0.00,,,0.00,WUHU21623XXSP,2013-09-22 16:39:00,
2013-09-22 12:44:00,65.8,60.9,29.65,SE,135,0.0,0.0,84,0.00,,,0.00,WUHU21623XXSP,2013-09-22 16:44:00,
2013-09-22 12:49:00,66.4,61.5,29.64,ESE,112,0.0,0.0,84,0.00,,,0.00,WUHU21623XXSP,2013-09-22 16:49:00,
2013-09-22 12:54:00,67.1,61.8,29.64,NW,315,0.0,0.0,83,0.00,,,0.00,WUHU21623XXSP,2013-09-22 16:54:00,
2013-09-22 12:59:00,68.3,63.0,29.64,WSW,247,0.0,0.0,83,0.00,,,0.00,WUHU21623XXSP,2013-09-22 16:59:00,
2013-09-22 13:04:00,68.7,63.3,29.64,West,270,2.2,2.2,83,0.00,,,0.00,WUHU21623XXSP,2013-09-22 17:04:00,
2013-09-22 13:09:00,68.9,63.5,29.63,South,180,0.0,2.2,83,0.00,,,0.00,WUHU21623XXSP,2013-09-22 17:09:00,
2013-09-22 13:14:00,69.6,64.2,29.64,NNW,337,0.9,0.9,83,0.00,,,0.00,WUHU21623XXSP,2013-09-22 17:14:00,
2013-09-22 13:19:00,70.0,64.2,29.64,North,0,0.0,1.3,82,0.00,,,0.00,WUHU21623XXSP,2013-09-22 17:19:00,
2013-09-22 13:24:00,70.3,63.9,29.63,NNW,337,0.0,1.3,80,0.00,,,0.00,WUHU21623XXSP,2013-09-22 17:24:00,
2013-09-22 13:29:00,70.9,63.6,29.63,NNW,337,0.0,1.1,78,0.00,,,0.00,WUHU21623XXSP,2013-09-22 17:29:00,
2013-09-22 13:35:00,71.4,63.8,29.63,ENE,67,0.0,1.6,77,0.00,,,0.00,WUHU21623XXSP,2013-09-22 17:35:00,
2013-09-22 13:40:00,72.1,63.8,29.63,SE,135,2.2,2.2,75,0.00,,,0.00,WUHU21623XXSP,2013-09-22 17:40:00,
2013-09-22 13:45:00,72.1,63.0,29.63,West,270,0.0,2.2,73,0.00,,,0.00,WUHU21623XXSP,2013-09-22 17:45:00,
2013-09-22 13:50:00,72.3,63.2,29.62,East,90,0.0,0.0,73,0.00,,,0.00,WUHU21623XXSP,2013-09-22 17:50:00,
2013-09-22 13:55:00,73.0,63.2,29.63,NNW,337,0.0,0.0,71,0.00,,,0.00,WUHU21623XXSP,2013-09-22 17:55:00,
2013-09-22 14:00:00,73.2,63.0,29.63,NW,315,1.6,1.6,70,0.00,,,0.00,WUHU21623XXSP,2013-09-22 18:00:00,
2013-09-22 14:05:00,73.6,63.1,29.63,SW,225,0.9,1.6,70,0.00,,,0.00,WUHU21623XXSP,2013-09-22 18:05:00,
2013-09-22 14:10:00,73.2,62.5,29.63,NE,45,0.0,0.9,69,0.00,,,0.00,WUHU21623XXSP,2013-09-22 18:10:00,
2013-09-22 14:15:00,72.7,62.4,29.63,East,90,0.7,0.7,70,0.00,,,0.00,WUHU21623XXSP,2013-09-22 18:15:00,
2013-09-22 14:20:00,72.3,61.8,29.63,NNW,337,2.9,2.9,69,0.00,,,0.00,WUHU21623XXSP,2013-09-22 18:20:00,
2013-09-22 14:25:00,72.0,61.3,29.63,NW,315,1.6,2.9,69,0.00,,,0.00,WUHU21623XXSP,2013-09-22 18:25:00,
2013-09-22 14:30:00,72.0,61.3,29.62,East,90,0.0,1.6,69,0.00,,,0.00,WUHU21623XXSP,2013-09-22 18:30:00,
2013-09-22 14:35:00,71.8,61.5,29.63,South,180,0.0,1.6,70,0.00,,,0.00,WUHU21623XXSP,2013-09-22 18:35:00,
2013-09-22 14:40:00,71.4,61.2,29.63,West,270,0.0,1.6,70,0.00,,,0.00,WUHU21623XXSP,2013-09-22 18:40:00,
2013-09-22 14:45:00,71.2,61.0,29.63,SSW,202,0.0,0.0,71,0.00,,,0.00,WUHU21623XXSP,2013-09-22 18:45:00,
2013-09-22 14:51:00,71.2,61.4,29.62,NW,315,1.1,1.3,71,0.00,,,0.00,WUHU21623XXSP,2013-09-22 18:51:00,
2013-09-22 14:56:00,71.8,61.9,29.63,SSE,157,0.0,1.3,71,0.00,,,0.00,WUHU21623XXSP,2013-09-22 18:56:00,
2013-09-22 15:00:00,72.0,61.5,29.63,WNW,292,0.0,0.0,70,0.00,,,0.00,WUHU21623XXSP,2013-09-22 19:00:00,
2013-09-22 15:05:00,71.8,61.9,29.63,WNW,292,0.0,0.0,71,0.00,,,0.00,WUHU21623XXSP,2013-09-22 19:05:00,
2013-09-22 15:11:00,71.8,61.9,29.62,NNW,337,3.6,3.6,71,0.00,,,0.00,WUHU21623XXSP,2013-09-22 19:11:00,
2013-09-22 15:16:00,71.6,61.3,29.63,North,0,7.4,7.4,70,0.00,,,0.00,WUHU21623XXSP,2013-09-22 19:16:00,
2013-09-22 15:21:00,72.1,60.6,29.63,NW,315,0.0,7.4,67,0.00,,,0.00,WUHU21623XXSP,2013-09-22 19:21:00,
2013-09-22 15:26:00,72.3,60.7,29.63,WNW,292,0.0,1.8,67,0.00,,,0.00,WUHU21623XXSP,2013-09-22 19:26:00,
2013-09-22 15:31:00,72.3,60.3,29.63,North,0,2.0,2.0,66,0.00,,,0.00,WUHU21623XXSP,2013-09-22 19:31:00,
2013-09-22 15:36:00,71.8,60.4,29.63,West,270,0.0,2.0,67,0.00,,,0.00,WUHU21623XXSP,2013-09-22 19:36:00,
2013-09-22 15:41:00,71.6,60.6,29.63,WNW,292,0.0,0.0,68,0.00,,,0.00,WUHU21623XXSP,2013-09-22 19:41:00,
2013-09-22 15:46:00,71.4,60.3,29.63,ENE,67,0.0,0.0,68,0.00,,,0.00,WUHU21623XXSP,2013-09-22 19:46:00,
2013-09-22 15:51:00,70.9,59.8,29.63,NNW,337,0.0,1.1,68,0.00,,,0.00,WUHU21623XXSP,2013-09-22 19:51:00,
2013-09-22 15:56:00,70.9,60.2,29.63,North,0,0.0,2.0,69,0.00,,,0.00,WUHU21623XXSP,2013-09-22 19:56:00,
2013-09-22 16:01:00,70.5,60.3,29.63,SSW,202,3.1,3.1,69,0.00,,,0.00,WUHU21623XXSP,2013-09-22 20:01:00,
2013-09-22 16:06:00,70.5,59.4,29.64,North,0,0.0,3.1,68,0.00,,,0.00,WUHU21623XXSP,2013-09-22 20:06:00,
2013-09-22 16:11:00,70.3,59.2,29.64,ENE,67,0.0,3.1,68,0.00,,,0.00,WUHU21623XXSP,2013-09-22 20:11:00,
2013-09-22 16:16:00,70.3,58.8,29.63,North,0,2.0,2.0,67,0.00,,,0.00,WUHU21623XXSP,2013-09-22 20:16:00,
2013-09-22 16:21:00,70.3,59.2,29.63,ENE,67,1.6,4.0,68,0.00,,,0.00,WUHU21623XXSP,2013-09-22 20:21:00,
2013-09-22 16:26:00,70.2,58.6,29.64,North,0,0.7,4.0,67,0.00,,,0.00,WUHU21623XXSP,2013-09-22 20:26:00,
2013-09-22 16:31:00,70.0,58.5,29.64,West,270,4.0,4.0,67,0.00,,,0.00,WUHU21623XXSP,2013-09-22 20:31:00,
2013-09-22 16:36:00,70.0,58.0,29.64,NNE,22,1.8,4.0,66,0.00,,,0.00,WUHU21623XXSP,2013-09-22 20:36:00,
2013-09-22 16:41:00,69.6,57.3,29.65,NE,45,0.9,1.8,65,0.00,,,0.00,WUHU21623XXSP,2013-09-22 20:41:00,
2013-09-22 16:46:00,69.6,56.9,29.64,SW,225,0.0,0.9,64,0.00,,,0.00,WUHU21623XXSP,2013-09-22 20:46:00,
2013-09-22 16:51:00,69.4,57.1,29.65,North,0,1.6,1.6,65,0.00,,,0.00,WUHU21623XXSP,2013-09-22 20:51:00,
2013-09-22 16:56:00,69.1,56.8,29.65,ENE,67,1.6,1.6,65,0.00,,,0.00,WUHU21623XXSP,2013-09-22 20:56:00,
2013-09-22 17:01:00,68.7,56.4,29.65,WNW,292,2.0,2.0,65,0.00,,,0.00,WUHU21623XXSP,2013-09-22 21:01:00,
2013-09-22 17:06:00,68.5,56.3,29.65,WNW,292,0.0,2.0,65,0.00,,,0.00,WUHU21623XXSP,2013-09-22 21:06:00,
2013-09-22 17:11:00,68.2,55.9,29.65,NNW,337,1.3,1.3,65,0.00,,,0.00,WUHU21623XXSP,2013-09-22 21:11:00,
2013-09-22 17:16:00,68.2,55.9,29.65,NNW,337,0.0,1.3,65,0.00,,,0.00,WUHU21623XXSP,2013-09-22 21:16:00,
2013-09-22 17:21:00,67.6,55.4,29.65,NNW,337,2.0,2.0,65,0.00,,,0.00,WUHU21623XXSP,2013-09-22 21:21:00,
2013-09-22 17:26:00,67.3,55.1,29.65,NW,315,0.0,2.0,65,0.00,,,0.00,WUHU21623XXSP,2013-09-22 21:26:00,
2013-09-22 17:31:00,66.9,54.7,29.65,NNE,22,0.0,0.9,65,0.00,,,0.00,WUHU21623XXSP,2013-09-22 21:31:00,
2013-09-22 17:36:00,66.7,55.0,29.65,SSW,202,0.0,2.2,66,0.00,,,0.00,WUHU21623XXSP,2013-09-22 21:36:00,
2013-09-22 17:41:00,66.6,55.0,29.66,South,180,0.0,0.0,66,0.00,,,0.00,WUHU21623XXSP,2013-09-22 21:41:00,
2013-09-22 17:46:00,66.2,54.9,29.66,NNW,337,0.0,0.0,67,0.00,,,0.00,WUHU21623XXSP,2013-09-22 21:46:00,
2013-09-22 17:51:00,66.0,54.7,29.66,SSE,157,0.0,0.0,67,0.00,,,0.00,WUHU21623XXSP,2013-09-22 21:51:00,
2013-09-22 17:56:00,65.7,54.4,29.66,ENE,67,0.7,0.7,67,0.00,,,0.00,WUHU21623XXSP,2013-09-22 21:56:00,
2013-09-22 18:01:00,65.3,54.0,29.67,WSW,247,0.0,0.7,67,0.00,,,0.00,WUHU21623XXSP,2013-09-22 22:01:00,
2013-09-22 18:06:00,65.1,54.3,29.66,NNE,22,1.6,1.6,68,0.00,,,0.00,WUHU21623XXSP,2013-09-22 22:06:00,
2013-09-22 18:11:00,64.9,54.1,29.66,NNW,337,0.0,1.6,68,0.00,,,0.00,WUHU21623XXSP,2013-09-22 22:11:00,
2013-09-22 18:16:00,64.8,54.4,29.67,South,180,0.0,1.6,69,0.00,,,0.00,WUHU21623XXSP,2013-09-22 22:16:00,
2013-09-22 18:21:00,64.6,54.2,29.67,South,180,0.0,0.0,69,0.00,,,0.00,WUHU21623XXSP,2013-09-22 22:21:00,
2013-09-22 18:26:00,64.2,53.9,29.67,NNW,337,0.0,0.0,69,0.00,,,0.00,WUHU21623XXSP,2013-09-22 22:26:00,
2013-09-22 18:32:00,63.7,53.8,29.67,WSW,247,0.0,0.0,70,0.00,,,0.00,WUHU21623XXSP,2013-09-22 22:32:00,
2013-09-22 18:37:00,63.3,53.4,29.67,WSW,247,0.0,0.0,70,0.00,,,0.00,WUHU21623XXSP,2013-09-22 22:37:00,
2013-09-22 18:42:00,63.0,53.6,29.67,WSW,247,0.0,0.0,71,0.00,,,0.00,WUHU21623XXSP,2013-09-22 22:42:00,
2013-09-22 18:47:00,62.4,53.3,29.68,WSW,247,0.0,0.0,72,0.00,,,0.00,WUHU21623XXSP,2013-09-22 22:47:00,
2013-09-22 18:52:00,62.2,53.3,29.68,WSW,247,0.0,0.0,71,0.00,,,0.00,WUHU21623XXSP,2013-09-22 22:52:00,
2013-09-22 18:57:00,61.7,52.6,29.68,NW,315,0.0,0.0,72,0.00,,,0.00,WUHU21623XXSP,2013-09-22 22:57:00,
2013-09-22 19:02:00,61.5,52.8,29.68,NW,315,0.0,0.0,73,0.00,,,0.00,WUHU21623XXSP,2013-09-22 23:02:00,
2013-09-22 19:07:00,61.2,52.5,29.69,NW,315,0.0,0.0,73,0.00,,,0.00,WUHU21623XXSP,2013-09-22 23:07:00,
2013-09-22 19:12:00,60.6,52.7,29.69,NW,315,0.0,0.0,74,0.00,,,0.00,WUHU21623XXSP,2013-09-22 23:12:00,
2013-09-22 19:17:00,60.4,52.2,29.70,WNW,292,0.0,0.0,74,0.00,,,0.00,WUHU21623XXSP,2013-09-22 23:17:00,
2013-09-22 19:22:00,60.3,52.3,29.70,WNW,292,0.0,0.0,75,0.00,,,0.00,WUHU21623XXSP,2013-09-22 23:22:00,
2013-09-22 19:27:00,60.1,52.2,29.70,NW,315,0.0,0.0,75,0.00,,,0.00,WUHU21623XXSP,2013-09-22 23:27:00,
2013-09-22 19:32:00,59.7,51.8,29.70,NNW,337,0.0,0.0,75,0.00,,,0.00,WUHU21623XXSP,2013-09-22 23:32:00,
2013-09-22 19:37:00,59.7,51.8,29.70,NNW,337,0.0,0.0,75,0.00,,,0.00,WUHU21623XXSP,2013-09-22 23:37:00,
2013-09-22 19:42:00,59.7,51.8,29.70,NNW,337,0.0,0.0,75,0.00,,,0.00,WUHU21623XXSP,2013-09-22 23:42:00,
2013-09-22 19:47:00,59.2,51.6,29.71,NNW,337,0.0,0.0,76,0.00,,,0.00,WUHU21623XXSP,2013-09-22 23:47:00,
2013-09-22 19:52:00,59.2,51.6,29.71,NNW,337,0.0,0.0,76,0.00,,,0.00,WUHU21623XXSP,2013-09-22 23:52:00,
2013-09-22 19:57:00,58.8,51.6,29.71,NNW,337,0.0,0.0,77,0.00,,,0.00,WUHU21623XXSP,2013-09-22 23:57:00,
2013-09-22 20:02:00,58.8,51.6,29.72,NNW,337,0.0,0.0,77,0.00,,,0.00,WUHU21623XXSP,2013-09-23 00:02:00,
2013-09-22 20:07:00,58.8,51.6,29.72,NNW,337,0.0,0.0,77,0.00,,,0.00,WUHU21623XXSP,2013-09-23 00:07:00,
2013-09-22 20:12:00,58.8,51.6,29.72,NNW,337,0.0,0.0,77,0.00,,,0.00,WUHU21623XXSP,2013-09-23 00:12:00,
2013-09-22 20:17:00,58.8,51.6,29.72,NNW,337,0.0,0.0,77,0.00,,,0.00,WUHU21623XXSP,2013-09-23 00:17:00,
2013-09-22 20:39:00,58.6,51.4,29.73,South,180,0.0,0.0,77,0.00,,,0.00,WUHU21623XXSP,2013-09-23 00:39:00,
2013-09-22 20:44:00,58.8,51.4,29.73,NNW,337,1.3,1.3,77,0.00,,,0.00,WUHU21623XXSP,2013-09-23 00:44:00,
2013-09-22 20:49:00,58.8,51.6,29.73,NNW,337,1.6,1.6,77,0.00,,,0.00,WUHU21623XXSP,2013-09-23 00:49:00,
2013-09-22 20:54:00,58.8,51.6,29.73,North,0,3.8,3.8,76,0.00,,,0.00,WUHU21623XXSP,2013-09-23 00:54:00,
2013-09-22 20:59:00,58.8,50.9,29.73,East,90,0.0,3.8,75,0.00,,,0.00,WUHU21623XXSP,2013-09-23 00:59:00,
2013-09-22 21:04:00,58.8,50.9,29.74,WNW,292,0.0,3.8,75,0.00,,,0.00,WUHU21623XXSP,2013-09-23 01:04:00,
2013-09-22 21:09:00,58.8,50.9,29.74,NNE,22,0.0,0.0,75,0.00,,,0.00,WUHU21623XXSP,2013-09-23 01:09:00,
2013-09-22 21:14:00,58.8,50.9,29.74,North,0,3.8,3.8,75,0.00,,,0.00,WUHU21623XXSP,2013-09-23 01:14:00,
2013-09-22 21:19:00,58.8,50.9,29.74,North,0,3.8,3.8,74,0.00,,,0.00,WUHU21623XXSP,2013-09-23 01:19:00,
2013-09-22 21:24:00,58.8,50.5,29.74,NNW,337,2.0,3.8,74,0.00,,,0.00,WUHU21623XXSP,2013-09-23 01:24:00,
2013-09-22 21:29:00,58.8,50.5,29.75,NNW,337,2.0,2.0,74,0.00,,,0.00,WUHU21623XXSP,2013-09-23 01:29:00,
2013-09-22 21:34:00,58.6,50.4,29.75,SW,225,0.0,2.0,74,0.00,,,0.00,WUHU21623XXSP,2013-09-23 01:34:00,
2013-09-22 21:39:00,58.6,50.4,29.75,WNW,292,0.0,2.2,73,0.00,,,0.00,WUHU21623XXSP,2013-09-23 01:39:00,
2013-09-22 21:44:00,58.5,50.0,29.75,South,180,0.0,2.2,73,0.00,,,0.00,WUHU21623XXSP,2013-09-23 01:44:00,
2013-09-22 21:49:00,58.5,49.8,29.75,North,0,0.0,1.1,73,0.00,,,0.00,WUHU21623XXSP,2013-09-23 01:49:00,
2013-09-22 21:54:00,58.3,49.6,29.75,NNE,22,0.0,1.1,73,0.00,,,0.00,WUHU21623XXSP,2013-09-23 01:54:00,
2013-09-22 21:59:00,58.3,49.6,29.76,ENE,67,0.0,5.4,73,0.00,,,0.00,WUHU21623XXSP,2013-09-23 01:59:00,
2013-09-22 22:04:00,58.3,49.6,29.76,ENE,67,0.0,5.4,73,0.00,,,0.00,WUHU21623XXSP,2013-09-23 02:04:00,
2013-09-22 22:09:00,57.9,49.6,29.76,SE,135,0.0,0.0,74,0.00,,,0.00,WUHU21623XXSP,2013-09-23 02:09:00,
2013-09-22 22:14:00,57.9,49.6,29.76,NW,315,1.1,1.1,74,0.00,,,0.00,WUHU21623XXSP,2013-09-23 02:14:00,
2013-09-22 22:19:00,57.9,49.6,29.76,NW,315,1.1,1.1,74,0.00,,,0.00,WUHU21623XXSP,2013-09-23 02:19:00,
2013-09-22 22:24:00,57.9,49.6,29.76,NW,315,1.1,1.1,74,0.00,,,0.00,WUHU21623XXSP,2013-09-23 02:24:00,
2013-09-22 22:29:00,57.9,49.6,29.77,NW,315,1.1,1.1,74,0.00,,,0.00,WUHU21623XXSP,2013-09-23 02:29:00,
2013-09-22 22:34:00,57.9,49.6,29.77,NW,315,1.1,1.1,74,0.00,,,0.00,WUHU21623XXSP,2013-09-23 02:34:00,
2013-09-22 22:43:00,57.0,49.1,29.77,WNW,292,2.5,2.5,75,0.00,,,0.00,WUHU21623XXSP,2013-09-23 02:43:00,
2013-09-22 22:48:00,57.0,49.1,29.77,NW,315,0.0,2.5,75,0.00,,,0.00,WUHU21623XXSP,2013-09-23 02:48:00,
2013-09-22 22:53:00,57.0,49.1,29.77,NW,315,0.0,0.0,75,0.00,,,0.00,WUHU21623XXSP,2013-09-23 02:53:00,
2013-09-22 22:58:00,57.0,49.1,29.77,NW,315,0.0,0.0,75,0.00,,,0.00,WUHU21623XXSP,2013-09-23 02:58:00,
2013-09-22 23:03:00,57.0,49.1,29.77,NW,315,0.0,0.0,75,0.00,,,0.00,WUHU21623XXSP,2013-09-23 03:03:00,
2013-09-22 23:09:00,56.5,48.2,29.78,NNW,337,0.0,0.0,74,0.00,,,0.00,WUHU21623XXSP,2013-09-23 03:09:00,
2013-09-22 23:14:00,56.5,48.2,29.78,NW,315,0.0,0.0,74,0.00,,,0.00,WUHU21623XXSP,2013-09-23 03:14:00,
2013-09-22 23:19:00,56.5,48.2,29.78,NW,315,0.0,0.0,74,0.00,,,0.00,WUHU21623XXSP,2013-09-23 03:19:00,
2013-09-22 23:24:00,56.5,48.2,29.78,NW,315,0.0,0.0,74,0.00,,,0.00,WUHU21623XXSP,2013-09-23 03:24:00,
2013-09-22 23:29:00,55.9,47.7,29.78,North,0,0.0,0.0,74,0.00,,,0.00,WUHU21623XXSP,2013-09-23 03:29:00,
2013-09-22 23:34:00,55.9,47.7,29.77,WNW,292,0.0,0.0,74,0.00,,,0.00,WUHU21623XXSP,2013-09-23 03:34:00,
2013-09-22 23:39:00,55.6,47.7,29.78,NW,315,0.0,0.0,75,0.00,,,0.00,WUHU21623XXSP,2013-09-23 03:39:00,
2013-09-22 23:44:00,55.2,47.6,29.78,NW,315,0.0,0.0,75,0.00,,,0.00,WUHU21623XXSP,2013-09-23 03:44:00,
2013-09-22 23:49:00,55.2,47.4,29.78,NW,315,0.0,0.0,75,0.00,,,0.00,WUHU21623XXSP,2013-09-23 03:49:00,
2013-09-22 23:54:00,55.2,47.4,29.78,NW,315,0.0,0.0,75,0.00,,,0.00,WUHU21623XXSP,2013-09-23 03:54:00,
2013-09-22 23:59:00,55.2,47.4,29.78,NW,315,0.0,0.0,75,0.00,,,0.00,WUHU21623XXSP,2013-09-23 03:59:00,